Weather Roundup
Issued by NWS Springfield, MO

Home | Current Version | Previous Version | Text Only | Print | Product List | Glossary On
Versions: 1 2 3 4 5 6 7 8 9 10 11 12 13 14 15 16 17 18 19 20 21 22 23 24 25 26 27 28 29 30 31 32 33 34 35 36 37 38 39 40 41 42 43 44 45 46 47 48 49 50
000
NZUS99 KSGF 181007
HRRSGF

HOURLY WEATHER
NATIONAL WEATHER SERVICE SPRINGFIELD MO
500 AM CDT THU SEP 18 2014

......SGF CWA......

CITY           SKY/WX    TMP DP  RH WIND       PRES   REMARKS
SPRINGFIELD    CLOUDY    64  62  93 S7        29.95F
JOPLIN         TSTM      63  62  97 S7        29.99R
WEST PLAINS    CLOUDY    61  59  93 CALM      29.98R FOG
ROLLA          FOG       59  58  96 E7        29.97R VSB 1/4
OSAGE BEACH    CLOUDY    63  61  94 E6        29.96S
BRANSON        LGT RAIN  64  64 100 CALM      29.99S VSB 1/4

......SURROUNDING SGF CWA......

CITY           SKY/WX    TMP DP  RH WIND       PRES   REMARKS
CHANUTE        TSTM      64  63  96 W7        29.98F FOG
PARSONS        LGT RAIN  67  64  90 NE14G22   30.01R
COFFEYVILLE    CLOUDY    67  63  87 E13       29.98R THUNDER
EMPORIA        HVY RAIN  64  63  96 VRB5G24   29.96R FOG
GROVE OK       RAIN      64  64 100 NW3       30.00R
ROGERS AR      TSTM      65  62  90 N8        30.00R
SILOAM SPRINGS CLOUDY    66  59  77 N13       30.02R THUNDER
HARRISON AR    FOG       62  62 100 NW6       29.98R VSB 1/2
NEAR YELLVILLE CLOUDY    63  59  88 NE3       29.96R

......KANSAS AND MISSOURI......

CITY           SKY/WX    TMP DP  RH WIND       PRES   REMARKS
KANSAS CTY INT FOG       61  61 100 E7        29.98F VSB 1/2
DOWNTOWN KC    CLOUDY    64  61  90 E7        29.97F FOG
COLUMBIA       FOG       60  59  96 NE7         N/A  VSB 3/4
SEDALIA        FOG       63  61  93 NE6       29.98S VSB 1/4
ST JOSEPH      MOCLDY    61  59  93 E5        30.00R
ST LOUIS       CLOUDY    62  56  80 CALM      30.01R
SPIRIT OF STL  CLOUDY    61  58  90 CALM      29.99R
KIRKSVILLE     FOG       54  54 100 CALM      30.03R VSB 1/4
WICHITA        MOCLDY    72  67  84 E8        29.88R
TOPEKA         CLOUDY    65  65 100 E8        29.95F FOG
OLATHE         CLOUDY    62  61  96 E7        29.96F FOG

......TENNESSEE......

CITY           SKY/WX    TMP DP  RH WIND       PRES   REMARKS
MEMPHIS        CLOUDY    68  64  87 NE6       29.93R
NASHVILLE      MOCLDY    62  58  86 CALM      29.98S

......ARKANSAS.......

CITY           SKY/WX    TMP DP  RH WIND       PRES   REMARKS
FAYETTEVILLE   CLOUDY    64  64 100 CALM      29.97R
FT SMITH       MOCLDY    68  65  90 N3        29.88F
LITTLE ROCK    CLOUDY    68  64  87 NE6       29.91R FOG

......OKLAHOMA.......

CITY           SKY/WX    TMP DP  RH WIND       PRES   REMARKS
TULSA          CLOUDY    72  66  81 NE8       29.92R
PONCA CITY     MOCLDY    75  68  78 S7        29.89R
MCALESTER      MOCLDY    67  64  90 CALM      29.89F
OKLAHOMA CITY  MOCLDY    71  64  78 S7        29.90S

......IOWA............

CITY           SKY/WX    TMP DP  RH WIND       PRES   REMARKS
DES MOINES     CLEAR     57  54  89 E3        30.02R
QUAD CITIES    CLEAR     47  45  93 CALM      30.04S FOG

......ILLINOIS........

CITY           SKY/WX    TMP DP  RH WIND       PRES   REMARKS
QUINCY         MOCLDY    50  49  96 E3        30.02R FOG
CHICAGO        CLEAR     53  47  79 CALM      30.06R



USA.gov is the U.S. government's official web portal to all federal, state and local government web resources and services.